TimeEDT,TemperatureF,Dew PointF,Humidity,Sea Level PressureIn,VisibilityMPH,Wind Direction,Wind SpeedMPH,Gust SpeedMPH,PrecipitationIn,Events,Conditions,WindDirDegrees,DateUTC
12:11 AM,64.9,61.9,90,30.00,10.0,SSW,5.8,-,N/A,,Clear,200,2012-10-06 04:11:00
12:32 AM,64.2,61.5,91,29.99,10.0,SSW,4.6,-,N/A,,Clear,200,2012-10-06 04:32:00
12:53 AM,64.6,61.9,91,29.99,10.0,SSW,4.6,-,N/A,,Clear,210,2012-10-06 04:53:00
1:14 AM,64.6,62.1,92,29.99,10.0,SSW,4.6,-,N/A,,Clear,200,2012-10-06 05:14:00
1:36 AM,64.4,62.6,94,29.98,10.0,South,5.8,-,N/A,,Clear,180,2012-10-06 05:36:00
1:57 AM,64.0,62.4,94,29.98,10.0,South,5.8,-,N/A,,Clear,190,2012-10-06 05:57:00
2:18 AM,64.6,63.0,94,29.97,10.0,SSW,5.8,-,N/A,,Clear,200,2012-10-06 06:18:00
3:01 AM,63.3,62.6,97,29.96,10.0,Calm,Calm,-,N/A,,Clear,0,2012-10-06 07:01:00
3:22 AM,63.3,62.6,97,29.96,10.0,SW,3.5,-,N/A,,Clear,220,2012-10-06 07:22:00
3:44 AM,63.1,63.1,100,29.95,10.0,SSW,3.5,-,N/A,,Clear,210,2012-10-06 07:44:00
4:05 AM,62.8,62.8,100,29.95,10.0,Calm,Calm,-,N/A,,Clear,0,2012-10-06 08:05:00
4:26 AM,62.6,62.6,100,29.95,10.0,Calm,Calm,-,N/A,,Clear,0,2012-10-06 08:26:00
4:48 AM,64.4,64.4,100,29.94,10.0,South,4.6,-,N/A,,Clear,190,2012-10-06 08:48:00
5:09 AM,64.0,63.3,97,29.94,10.0,SSW,4.6,-,N/A,,Clear,200,2012-10-06 09:09:00
5:30 AM,64.4,62.6,94,29.94,10.0,SW,4.6,-,N/A,,Clear,230,2012-10-06 09:30:00
5:52 AM,63.0,62.1,97,29.94,10.0,South,3.5,-,N/A,,Clear,190,2012-10-06 09:52:00
5:53 AM,62.6,62.6,100,29.94,10.0,Calm,Calm,-,N/A,,Clear,0,2012-10-06 09:53:00
6:13 AM,62.6,62.2,99,29.94,10.0,SSW,3.5,-,N/A,,Clear,210,2012-10-06 10:13:00
6:53 AM,64.4,62.6,94,29.93,10.0,SW,6.9,-,N/A,,Scattered Clouds,220,2012-10-06 10:53:00
7:53 AM,66.2,64.4,94,29.93,10.0,SSW,8.1,-,N/A,,Scattered Clouds,210,2012-10-06 11:53:00
8:53 AM,71.6,64.4,78,29.92,10.0,SSW,11.5,-,N/A,,Scattered Clouds,200,2012-10-06 12:53:00
9:55 AM,75.2,64.4,69,29.90,10.0,SW,11.5,17.3,N/A,,Scattered Clouds,230,2012-10-06 13:55:00
10:46 AM,75.2,64.4,69,29.89,10.0,SSW,15.0,-,N/A,,Scattered Clouds,210,2012-10-06 14:46:00
11:50 AM,77.0,64.4,65,29.89,10.0,SW,17.3,23.0,N/A,,Scattered Clouds,220,2012-10-06 15:50:00
12:50 PM,80.6,64.4,58,29.87,10.0,SW,13.8,-,N/A,,Scattered Clouds,220,2012-10-06 16:50:00
1:59 PM,80.6,64.4,58,29.86,10.0,WSW,9.2,-,N/A,,Scattered Clouds,250,2012-10-06 17:59:00
2:52 PM,78.8,62.6,57,29.87,10.0,WNW,10.4,-,N/A,,Mostly Cloudy,300,2012-10-06 18:52:00
3:51 PM,71.6,59.0,64,29.91,10.0,NNW,11.5,-,N/A,,Overcast,340,2012-10-06 19:51:00
4:54 PM,66.2,59.0,78,29.93,10.0,NNW,9.2,-,N/A,,Mostly Cloudy,330,2012-10-06 20:54:00
5:51 PM,66.2,53.6,64,29.94,10.0,NNW,11.5,-,N/A,,Mostly Cloudy,330,2012-10-06 21:51:00
6:53 PM,64.4,50.0,59,29.97,10.0,NNW,9.2,-,N/A,,Mostly Cloudy,330,2012-10-06 22:53:00
7:50 PM,62.6,48.2,59,30.00,10.0,NW,6.9,-,N/A,,Mostly Cloudy,320,2012-10-06 23:50:00
8:50 PM,59.0,50.0,72,30.03,10.0,North,5.8,-,N/A,,Scattered Clouds,350,2012-10-07 00:50:00
10:31 PM,57.4,47.1,69,30.07,10.0,North,3.5,-,N/A,,Clear,10,2012-10-07 02:31:00
10:52 PM,56.8,46.6,69,30.07,10.0,North,3.5,-,N/A,,Clear,10,2012-10-07 02:52:00
11:13 PM,56.5,46.8,70,30.07,10.0,Calm,Calm,-,N/A,,Scattered Clouds,0,2012-10-07 03:13:00
11:35 PM,56.3,46.9,71,30.07,10.0,North,3.5,-,N/A,,Clear,10,2012-10-07 03:35:00
11:56 PM,55.6,46.8,72,30.07,10.0,Calm,Calm,-,N/A,,Scattered Clouds,0,2012-10-07 03:56:00